D7126 Weather Reports


Display with metric or nautical units.
time (UTC)temp
F
wind
direction
speed
MPH
gust
MPH
rain 1hr
in
rain 24hr
in
rain mn
in
humidity
%
barometer
mb
20260507060604 54 27 0.0 2.0 0.00 0.00 0.00 86 1004.1
20260507060055 54 28 0.0 1.0 0.00 0.00 0.00 87 1004.1
20260507055554 54 28 0.0 1.0 0.00 0.00 0.00 87 1004.0
20260507055048 53 30 0.0 1.0 0.00 0.00 0.00 86 1004.0
20260507054543 53 30 0.0 1.0 0.00 0.00 0.00 86 1003.9
20260507054032 53 30 0.0 1.0 0.00 0.00 0.00 87 1003.8
20260507053529 53 19 0.0 1.0 0.00 0.00 0.00 87 1003.7
20260507053212 53 17 0.0 1.0 0.00 0.00 0.00 86 1003.8
20260507053127 53 19 0.0 1.0 0.00 0.00 0.00 87 1003.7
20260507052013 53 19 0.0 0.0 0.00 0.00 0.00 85 1003.8
20260507051505 54 19 0.0 0.0 0.00 0.00 0.00 86 1003.8
20260507050959 54 19 0.0 0.0 0.00 0.00 0.00 86 1003.8
20260507050455 54 19 0.0 0.0 0.00 0.00 0.00 85 1003.8
20260507045950 54 19 0.0 0.0 0.00 0.00 0.00 85 1003.9
20260507045811 54 19 0.0 1.0 0.00 0.00 0.00 85 1003.8
20260507044945 54 19 0.0 3.0 0.00 0.00 0.00 85 1003.8
20260507044442 54 19 0.0 3.0 0.00 0.00 0.00 85 1003.9
20260507043944 55 19 0.0 1.0 0.00 0.00 0.00 85 1003.8
20260507043438 55 18 0.0 2.0 0.00 0.00 0.00 85 1003.8
20260507042937 55 19 0.0 2.0 0.00 0.00 0.00 85 1003.8
20260507042439 55 18 0.0 3.0 0.00 0.00 0.00 85 1003.9
20260507041938 55 18 1.0 3.0 0.00 0.00 0.00 85 1003.9
20260507041757 55 19 1.0 4.0 0.00 0.00 0.00 85 1004.0
20260507040935 55 19 2.0 4.0 0.00 0.00 0.00 85 1004.0
20260507040815 55 19 1.0 4.0 0.00 0.00 0.00 85 1004.0
20260507040330 55 19 1.0 4.0 0.00 0.00 0.00 85 1004.1
20260507035432 55 19 1.0 4.0 0.00 0.00 0.00 85 1004.1
20260507034930 55 18 1.0 4.0 0.00 0.00 0.00 85 1004.2
20260507034431 55 17 2.0 5.0 0.00 0.00 0.00 85 1004.2
20260507033930 55 27 2.0 5.0 0.00 0.00 0.00 85 1004.3
20260507033429 55 23 2.0 5.0 0.00 0.00 0.00 85 1004.3
20260507032930 55 17 3.0 6.0 0.00 0.00 0.00 85 1004.3
20260507032432 55 13 2.0 6.0 0.00 0.00 0.00 85 1004.3
20260507031929 55 21 2.0 5.0 0.00 0.00 0.00 85 1004.4
20260507031747 55 21 3.0 5.0 0.00 0.00 0.00 85 1004.4
20260507030918 55 11 3.0 6.0 0.00 0.00 0.00 86 1004.5
20260507030407 55 11 2.0 6.0 0.00 0.00 0.00 86 1004.6
20260507025906 55 355 2.0 4.0 0.00 0.00 0.00 86 1004.6
20260507025400 55 11 2.0 4.0 0.00 0.00 0.00 86 1004.6
20260507025151 55 14 1.0 4.0 0.00 0.00 0.00 86 1004.7
20260507025023 55 15 0.0 1.0 0.00 0.00 0.00 85 1004.6
20260507024932 55 14 1.0 4.0 0.00 0.00 0.00 86 1004.7
20260507024510 54 15 0.0 3.0 0.00 0.00 0.00 85 1004.7
20260507023332 55 15 0.0 1.0 0.00 0.00 0.00 85 1004.7
20260507022828 55 15 0.0 3.0 0.00 0.00 0.00 85 1004.7
20260507022706 55 15 1.0 4.0 0.00 0.00 0.00 85 1004.7
20260507021821 55 15 0.0 4.0 0.00 0.00 0.00 84 1004.7
20260507021312 55 15 1.0 5.0 0.00 0.00 0.00 84 1004.7
20260507020804 55 15 2.0 7.0 0.00 0.00 0.00 84 1004.8
20260507020620 56 16 3.0 7.0 0.00 0.00 0.00 85 1004.7
20260507015754 56 0 3.0 6.0 0.00 0.00 0.00 84 1004.7
20260507015244 56 17 2.0 5.0 0.00 0.00 0.00 84 1004.8
20260507014736 56 17 2.0 5.0 0.00 0.00 0.00 84 1004.8
20260507014235 56 17 3.0 5.0 0.00 0.00 0.00 84 1004.9
20260507013735 56 13 4.0 6.0 0.00 0.00 0.00 84 1005.0
20260507013232 56 32 3.0 6.0 0.00 0.00 0.00 84 1004.9
20260507012734 56 23 3.0 6.0 0.00 0.00 0.00 84 1005.0
20260507012231 56 5 3.0 7.0 0.00 0.00 0.00 84 1005.1
20260507011732 56 0 2.0 7.0 0.00 0.00 0.00 84 1005.1
20260507011229 56 350 2.0 3.0 0.00 0.00 0.00 84 1005.2
20260507010729 56 349 2.0 6.0 0.00 0.00 0.00 84 1005.2
20260507010616 56 348 1.0 6.0 0.00 0.00 0.00 83 1005.2
20260507005730 56 10 1.0 5.0 0.00 0.00 0.00 83 1005.3
20260507005233 56 10 2.0 5.0 0.00 0.00 0.00 83 1005.3
20260507004733 56 11 3.0 6.0 0.00 0.00 0.00 83 1005.3
20260507004232 56 11 3.0 6.0 0.00 0.00 0.00 83 1005.3
20260507003732 57 15 2.0 5.0 0.00 0.00 0.00 83 1005.3
20260507003232 57 19 2.0 6.0 0.00 0.00 0.00 83 1005.3
20260507003010 57 9 2.0 5.0 0.00 0.00 0.00 83 1005.3
20260507002902 57 20 2.0 6.0 0.00 0.00 0.00 83 1005.3
20260507002139 57 9 2.0 7.0 0.00 0.00 0.00 83 1005.3
20260507001230 57 9 2.0 7.0 0.00 0.00 0.00 83 1005.4
20260507000730 57 5 2.0 6.0 0.00 0.00 0.00 82 1005.4
20260507000233 57 24 3.0 6.0 0.00 0.00 0.00 82 1005.5
20260507000116 57 5 3.0 7.0 0.00 0.00 0.00 82 1005.6
20260506235853 57 24 3.0 6.0 0.00 0.00 0.00 82 1005.5
20260506235230 57 5 3.0 7.0 0.00 0.00 0.00 82 1005.6
20260506235115 57 11 4.0 8.0 0.00 0.00 0.00 82 1005.6
20260506234228 57 27 4.0 8.0 0.00 0.00 0.00 82 1005.6
20260506234148 57 34 5.0 8.0 0.00 0.00 0.00 82 1005.5
20260506233227 57 16 5.0 8.0 0.00 0.00 0.00 82 1005.6
20260506232729 57 13 5.0 11.0 0.00 0.00 0.00 82 1005.6
20260506232228 57 29 5.0 11.0 0.00 0.00 0.00 82 1005.6
20260506231729 57 13 4.0 8.0 0.00 0.00 0.00 82 1005.6
20260506231228 57 26 4.0 8.0 0.00 0.00 0.00 82 1005.5
20260506230729 57 34 4.0 10.0 0.00 0.00 0.00 83 1005.6
20260506230227 57 19 5.0 10.0 0.00 0.00 0.00 83 1005.6
20260506225728 57 26 4.0 10.0 0.00 0.00 0.00 82 1005.6
20260506225221 57 5 4.0 9.0 0.00 0.00 0.00 82 1005.5
20260506224709 57 36 4.0 7.0 0.00 0.00 0.00 81 1005.6
20260506224205 57 40 4.0 8.0 0.00 0.00 0.00 81 1005.6
20260506223702 57 32 4.0 8.0 0.00 0.00 0.00 81 1005.7
20260506223521 57 33 5.0 8.0 0.00 0.00 0.00 81 1005.7
20260506222703 58 19 5.0 8.0 0.00 0.00 0.00 81 1005.7
20260506222203 58 31 5.0 11.0 0.00 0.00 0.00 81 1005.8
20260506221702 58 41 6.0 11.0 0.00 0.00 0.00 81 1005.8
20260506221202 58 26 6.0 10.0 0.00 0.00 0.00 80 1005.8
20260506220702 58 27 5.0 9.0 0.00 0.00 0.00 80 1005.8
20260506220203 58 21 7.0 14.0 0.00 0.00 0.00 80 1005.9
20260506215702 58 24 8.0 14.0 0.00 0.00 0.00 80 1005.9
20260506215202 58 22 8.0 16.0 0.00 0.00 0.00 80 1005.9
20260506214702 58 21 9.0 16.0 0.00 0.00 0.00 80 1005.9
20260506214202 58 11 8.0 16.0 0.00 0.00 0.00 80 1006.0
20260506213703 58 342 6.0 15.0 0.00 0.00 0.00 80 1006.0
20260506213201 59 13 5.0 10.0 0.00 0.00 0.00 81 1006.0
20260506212702 59 11 6.0 12.0 0.00 0.00 0.00 81 1006.1
20260506212201 59 22 7.0 12.0 0.00 0.00 0.00 81 1006.0
20260506211701 59 23 7.0 12.0 0.00 0.00 0.00 81 1006.0
20260506211150 58 20 7.0 13.0 0.00 0.00 0.00 80 1006.0
20260506210638 59 9 9.0 15.0 0.00 0.00 0.00 80 1005.9
20260506210132 58 15 9.0 15.0 0.00 0.00 0.00 80 1005.9
20260506205631 59 18 9.0 17.0 0.00 0.00 0.00 81 1005.8
20260506205509 59 13 8.0 17.0 0.00 0.00 0.00 81 1005.8
20260506204633 59 19 6.0 12.0 0.00 0.00 0.00 81 1005.9
20260506204131 59 5 7.0 16.0 0.00 0.00 0.00 81 1005.9
20260506203630 59 15 8.0 16.0 0.00 0.00 0.00 81 1005.8
20260506203457 59 19 7.0 12.0 0.00 0.00 0.00 81 1005.8
20260506202951 59 18 7.0 12.0 0.00 0.00 0.00 81 1005.8
20260506202132 59 5 7.0 12.0 0.00 0.00 0.00 81 1005.8
20260506201630 59 19 6.0 11.0 0.00 0.00 0.00 80 1005.8
20260506201130 59 19 7.0 12.0 0.00 0.00 0.00 80 1005.7
20260506200633 59 17 8.0 14.0 0.00 0.00 0.00 80 1005.7
20260506200131 59 11 9.0 15.0 0.00 0.00 0.00 80 1005.7
20260506195634 59 30 9.0 15.0 0.00 0.00 0.00 80 1005.6
20260506195133 60 30 9.0 15.0 0.00 0.00 0.00 80 1005.7
20260506194638 60 27 10.0 17.0 0.00 0.00 0.00 79 1005.6
20260506194144 60 5 10.0 17.0 0.00 0.00 0.00 79 1005.6
20260506193636 60 13 10.0 16.0 0.00 0.00 0.00 79 1005.7
20260506193122 60 32 9.0 16.0 0.00 0.00 0.00 79 1005.6
20260506192621 60 355 9.0 15.0 0.00 0.00 0.00 79 1005.6
20260506192133 60 0 11.0 18.0 0.00 0.00 0.00 78 1005.5
20260506191946 61 26 10.0 18.0 0.00 0.00 0.00 77 1005.4
20260506191117 61 16 10.0 17.0 0.00 0.00 0.00 77 1005.5
20260506190620 61 32 9.0 17.0 0.00 0.00 0.00 77 1005.5
20260506190442 61 26 9.0 15.0 0.00 0.00 0.00 77 1005.4
20260506185809 62 0 12.0 20.0 0.00 0.00 0.00 76 1005.4
20260506185733 61 5 10.0 18.0 0.00 0.00 0.00 77 1005.4
20260506184614 62 351 13.0 21.0 0.00 0.00 0.00 77 1005.4
20260506184107 62 0 12.0 21.0 0.00 0.00 0.00 75 1005.4
20260506183607 62 21 12.0 19.0 0.00 0.00 0.00 75 1005.4
20260506183107 62 350 12.0 20.0 0.00 0.00 0.00 75 1005.5
20260506182606 63 21 10.0 20.0 0.00 0.00 0.00 74 1005.4
20260506182119 63 32 10.0 18.0 0.00 0.00 0.00 74 1005.4
20260506181607 63 38 10.0 18.0 0.00 0.00 0.00 74 1005.4
20260506181106 63 14 10.0 18.0 0.00 0.00 0.00 74 1005.4
20260506180606 63 347 12.0 20.0 0.00 0.00 0.00 74 1005.4
20260506180108 63 5 11.0 20.0 0.00 0.00 0.00 74 1005.5
20260506175607 63 23 11.0 18.0 0.00 0.00 0.00 74 1005.5
20260506175107 63 9 12.0 18.0 0.00 0.00 0.00 75 1005.6
20260506174606 63 20 12.0 19.0 0.00 0.00 0.00 74 1005.6
20260506174106 63 16 12.0 20.0 0.00 0.00 0.00 74 1005.6
20260506173606 64 347 11.0 20.0 0.00 0.00 0.00 72 1005.6
20260506173416 64 20 11.0 17.0 0.00 0.00 0.00 72 1005.6
20260506172606 64 19 12.0 19.0 0.00 0.00 0.00 71 1005.6
20260506172108 65 9 13.0 19.0 0.00 0.00 0.00 71 1005.6
20260506171602 65 26 13.0 20.0 0.00 0.00 0.00 69 1005.7
20260506171104 65 44 12.0 20.0 0.00 0.00 0.00 71 1005.7
20260506170847 65 32 12.0 21.0 0.00 0.00 0.00 71 1005.7
20260506165605 65 11 12.0 21.0 0.00 0.00 0.00 69 1005.7
20260506165103 65 17 11.0 21.0 0.00 0.00 0.00 69 1005.8
20260506164905 65 321 11.0 21.0 0.00 0.00 0.00 69 1005.8
20260506164403 65 0 12.0 21.0 0.00 0.00 0.00 69 1005.7
20260506163913 65 17 14.0 21.0 0.00 0.00 0.00 68 1005.8
20260506163102 65 355 12.0 21.0 0.00 0.00 0.00 67 1005.9
20260506162603 66 345 11.0 19.0 0.00 0.00 0.00 67 1005.9
20260506162103 66 11 11.0 18.0 0.00 0.00 0.00 68 1006.0
20260506161604 66 327 11.0 18.0 0.00 0.00 0.00 68 1005.9
20260506161103 66 348 12.0 20.0 0.00 0.00 0.00 67 1006.0
20260506160602 66 9 11.0 20.0 0.00 0.00 0.00 66 1005.9
20260506155602 66 5 11.0 18.0 0.00 0.00 0.00 69 1005.9
20260506155104 66 20 12.0 20.0 0.00 0.00 0.00 69 1005.9
20260506154602 67 5 10.0 20.0 0.00 0.00 0.00 68 1006.0
20260506154408 67 355 10.0 17.0 0.00 0.00 0.00 70 1006.0
20260506153603 66 5 12.0 18.0 0.00 0.00 0.00 71 1006.0
20260506153103 66 35 12.0 19.0 0.00 0.00 0.00 70 1006.0
20260506152602 66 355 12.0 19.0 0.00 0.00 0.00 68 1006.0
20260506152102 66 5 13.0 19.0 0.00 0.00 0.00 70 1006.1
20260506151602 66 330 12.0 22.0 0.00 0.00 0.00 69 1006.1
20260506151338 66 337 11.0 18.0 0.00 0.00 0.00 70 1006.4
20260506151253 66 20 12.0 22.0 0.00 0.00 0.00 70 1006.2
20260506151027 66 348 11.0 18.0 0.00 0.00 0.00 70 1006.3
20260506145603 66 13 11.0 18.0 0.00 0.00 0.00 70 1006.4
20260506145102 66 22 9.0 18.0 0.00 0.00 0.00 70 1006.6
20260506144601 66 331 10.0 19.0 0.00 0.00 0.00 71 1006.7
20260506144102 66 0 10.0 19.0 0.00 0.00 0.00 71 1006.7
20260506143602 66 5 10.0 18.0 0.00 0.00 0.00 72 1006.7
20260506143102 65 5 10.0 17.0 0.00 0.00 0.00 72 1006.8
20260506142604 66 336 9.0 18.0 0.00 0.00 0.00 71 1006.8
20260506142236 66 5 10.0 16.0 0.00 0.00 0.00 71 1006.8
20260506142207 66 10 9.0 18.0 0.00 0.00 0.00 71 1006.9
20260506141357 66 22 11.0 18.0 0.00 0.00 0.00 71 1006.8
20260506140904 65 349 10.0 18.0 0.00 0.00 0.00 73 1006.8
20260506140047 65 346 10.0 17.0 0.00 0.00 0.00 72 1006.9
20260506135546 65 355 10.0 19.0 0.00 0.00 0.00 70 1007.0
20260506135048 65 19 10.0 19.0 0.00 0.00 0.00 72 1007.0
20260506134546 65 15 9.0 17.0 0.00 0.00 0.00 72 1007.1
20260506134357 65 331 10.0 18.0 0.00 0.00 0.00 73 1007.0
20260506133547 65 339 11.0 18.0 0.00 0.00 0.00 74 1007.2
20260506133041 65 332 11.0 16.0 0.00 0.00 0.00 74 1007.2
20260506132532 65 329 10.0 17.0 0.00 0.00 0.00 75 1007.3
20260506132029 65 0 11.0 18.0 0.00 0.00 0.00 77 1007.3
20260506131900 64 323 11.0 18.0 0.00 0.00 0.00 76 1007.4
20260506131029 64 344 10.0 16.0 0.00 0.00 0.00 77 1007.4
20260506130530 63 306 11.0 21.0 0.00 0.00 0.00 79 1007.4
20260506130030 63 350 12.0 21.0 0.00 0.00 0.00 79 1007.4
20260506125529 63 317 12.0 21.0 0.00 0.00 0.00 78 1007.4
20260506125029 63 334 12.0 22.0 0.00 0.00 0.00 81 1007.6
20260506124532 62 340 13.0 22.0 0.00 0.00 0.00 80 1007.6
20260506124343 62 355 13.0 23.0 0.00 0.00 0.00 79 1007.7
20260506123530 62 342 13.0 23.0 0.00 0.00 0.00 81 1007.7
20260506123031 62 355 12.0 20.0 0.00 0.00 0.00 81 1007.7
20260506122531 62 317 11.0 18.0 0.00 0.00 0.00 81 1007.8
20260506122030 62 335 10.0 17.0 0.00 0.00 0.00 81 1007.8
20260506121529 62 321 10.0 17.0 0.00 0.00 0.00 81 1007.9
20260506121337 63 347 10.0 17.0 0.00 0.00 0.00 80 1008.0
20260506120530 63 325 10.0 19.0 0.00 0.00 0.00 81 1008.0
20260506120029 63 318 10.0 19.0 0.00 0.00 0.00 81 1008.1
20260506115518 62 302 12.0 18.0 0.00 0.00 0.00 81 1008.0
20260506115333 63 321 12.0 18.0 0.00 0.00 0.00 80 1008.0
20260506114518 63 321 11.0 17.0 0.00 0.00 0.00 78 1008.1
20260506114017 63 299 9.0 17.0 0.00 0.00 0.00 78 1008.1
20260506113518 64 300 8.0 14.0 0.00 0.00 0.00 79 1008.2
20260506113019 63 300 9.0 16.0 0.00 0.00 0.00 78 1008.2
20260506112519 63 325 10.0 16.0 0.00 0.00 0.00 80 1008.2
20260506112017 63 305 9.0 16.0 0.00 0.00 0.00 79 1008.3
20260506111902 63 336 10.0 16.0 0.00 0.00 0.00 79 1008.3
20260506111015 63 328 9.0 16.0 0.00 0.00 0.00 79 1008.3
20260506110501 63 338 8.0 14.0 0.00 0.00 0.00 82 1008.3
20260506110002 62 322 9.0 15.0 0.00 0.00 0.00 83 1008.4
20260506105502 61 342 8.0 15.0 0.00 0.00 0.00 82 1008.5
20260506105002 61 349 8.0 14.0 0.00 0.00 0.00 83 1008.5
20260506104659 61 0 9.0 18.0 0.00 0.00 0.00 82 1008.3
20260506104559 61 0 10.0 18.0 0.00 0.00 0.00 82 1008.4
20260506103502 61 344 9.0 15.0 0.00 0.00 0.00 84 1008.3
20260506103318 61 331 10.0 15.0 0.00 0.00 0.00 83 1008.4
20260506102503 61 317 10.0 15.0 0.00 0.00 0.00 83 1008.4
20260506101957 61 333 11.0 18.0 0.00 0.00 0.00 84 1008.4
20260506101446 60 318 11.0 18.0 0.00 0.00 0.00 84 1008.4
20260506100933 60 308 10.0 16.0 0.00 0.00 0.00 85 1008.4
20260506100434 60 338 9.0 14.0 0.00 0.00 0.00 86 1008.4
20260506095935 59 317 8.0 19.0 0.00 0.00 0.00 86 1008.5
20260506095435 59 319 10.0 19.0 0.00 0.00 0.00 86 1008.4
20260506094935 59 317 11.0 19.0 0.00 0.00 0.00 86 1008.5
20260506094435 59 325 11.0 19.0 0.00 0.00 0.00 85 1008.5
20260506093935 60 286 10.0 19.0 0.00 0.00 0.00 84 1008.5
20260506093435 61 275 9.0 16.0 0.00 0.00 0.00 83 1008.4
20260506093251 62 327 10.0 16.0 0.00 0.00 0.00 82 1008.4
20260506092430 62 299 10.0 16.0 0.00 0.00 0.00 79 1008.3
20260506091931 62 345 9.0 15.0 0.00 0.00 0.00 76 1008.2
20260506091434 62 5 10.0 15.0 0.00 0.00 0.00 77 1008.3
20260506090930 61 10 9.0 15.0 0.00 0.00 0.00 77 1008.3
20260506090430 61 5 9.0 14.0 0.00 0.00 0.00 76 1008.2
20260506085931 62 9 9.0 16.0 0.00 0.00 0.00 77 1008.3
20260506085430 61 41 10.0 16.0 0.00 0.00 0.00 77 1008.3
20260506084933 61 16 9.0 16.0 0.00 0.00 0.00 78 1008.3
20260506084430 61 355 7.0 15.0 0.00 0.00 0.00 79 1008.2
20260506083930 61 11 6.0 10.0 0.00 0.00 0.00 80 1008.2
20260506083738 60 355 7.0 11.0 0.00 0.00 0.00 80 1008.2
20260506082930 60 0 7.0 11.0 0.00 0.00 0.00 81 1008.2
20260506082430 60 25 6.0 11.0 0.00 0.00 0.00 82 1008.2
20260506081931 60 5 7.0 13.0 0.00 0.00 0.00 83 1008.2
20260506081429 60 29 7.0 13.0 0.00 0.00 0.00 84 1008.2
20260506080929 60 9 6.0 10.0 0.00 0.00 0.00 85 1008.3
20260506080430 59 24 7.0 13.0 0.00 0.00 0.00 86 1008.3
20260506073431 58 24 0.0 1.0 0.00 0.00 0.00 88 1008.3
20260506072930 58 24 0.0 0.0 0.00 0.00 0.00 88 1008.2
20260506072430 58 24 0.0 0.0 0.00 0.00 0.00 88 1008.3
20260506071931 58 23 0.0 2.0 0.00 0.00 0.00 88 1008.3
20260506071440 57 23 1.0 2.0 0.00 0.00 0.00 88 1008.2
20260506070931 57 22 1.0 3.0 0.00 0.00 0.00 88 1008.2
20260506070432 57 22 0.0 3.0 0.00 0.00 0.00 88 1008.2
20260506070240 56 24 0.0 2.0 0.00 0.00 0.00 88 1008.2
20260506062419 55 24 0.0 0.0 0.00 0.00 0.00 88 1008.1
20260506061917 55 24 0.0 1.0 0.00 0.00 0.00 88 1008.0
20260506061417 55 24 0.0 1.0 0.00 0.00 0.00 88 1008.0
20260506060918 55 24 0.0 0.0 0.00 0.00 0.00 88 1008.0